User: anonymous   Login
Location: Arrodets-la-Barthe
(43.0306°N, 0.2829°E)
Time: 02:50:04
(UTC+00:00)
Language:

OE (NEXTSAT) - Orbit

View from above orbital plane
View from above orbital plane
View from above satellite
View from above satellite

Ground track
Ground track

The orbit data is extracted from the following two-line orbital elements,

1 30774U 07006C   22026.62202236  .00009984  00000-0  18868-3 0  9993
2 30774  45.9999  77.2273 0006556 331.1501  28.9042 15.48786138831819
Epoch (UTC): 26 January 2022 14:55:42
Eccentricity: 0.0006556
inclination: 45.9999°
perigee height: 416 km
apogee height: 425 km
right ascension of ascending node: 77.2273°
argument of perigee: 331.1501°
revolutions per day: 15.48786138
mean anomaly at epoch: 28.9042°
orbit number at epoch: 83181

The dashed part of the orbit path shows where the satellite is in the earth's shadow,  

DLR